Time,TemperatureF,DewpointF,PressureIn,WindDirection,WindDirectionDegrees,WindSpeedMPH,WindSpeedGustMPH,Humidity,HourlyPrecipIn,Conditions,Clouds,dailyrainin,SolarRadiationWatts/m^2,SoftwareType,DateUTC
2013-02-26 00:00:00,26.0,26.0,-100.00,WNW,288,0.0,1.0,100,-99.99,,,0.02,-0.200000,,2013-02-26 08:00:00,
2013-02-26 00:52:00,26.0,26.0,-100.00,WNW,288,0.0,1.0,100,-99.99,,,0.02,-0.200000,,2013-02-26 08:52:00,
2013-02-26 01:00:00,26.0,26.0,-100.00,West,263,1.0,2.0,100,-99.99,,,0.02,-3.700000,,2013-02-26 09:00:00,
2013-02-26 01:52:00,26.0,26.0,-100.00,West,263,1.0,2.0,100,-99.99,,,0.02,-3.700000,,2013-02-26 09:52:00,
2013-02-26 02:00:00,26.0,26.0,-100.00,South,188,1.0,2.0,100,-99.99,,,0.02,-0.200000,,2013-02-26 10:00:00,
2013-02-26 02:52:00,26.0,26.0,-100.00,South,188,1.0,2.0,100,-99.99,,,0.02,-0.200000,,2013-02-26 10:52:00,
2013-02-26 03:00:00,26.0,26.0,-100.00,NNW,328,0.0,1.0,100,-99.99,,,0.01,-0.200000,,2013-02-26 11:00:00,
2013-02-26 03:52:00,26.0,26.0,-100.00,NNW,328,0.0,1.0,100,-99.99,,,0.01,-0.200000,,2013-02-26 11:52:00,
2013-02-26 04:00:00,26.0,26.0,-100.00,NW,306,0.0,1.0,100,-99.99,,,0.01,1.500000,,2013-02-26 12:00:00,
2013-02-26 04:53:00,26.0,26.0,-100.00,NW,306,0.0,1.0,100,-99.99,,,0.01,1.500000,,2013-02-26 12:53:00,
2013-02-26 05:00:00,26.0,26.0,-100.00,NNW,334,0.0,2.0,100,-99.99,,,0.01,-0.200000,,2013-02-26 13:00:00,
2013-02-26 05:52:00,26.0,26.0,-100.00,NNW,334,0.0,2.0,100,-99.99,,,0.01,-0.200000,,2013-02-26 13:52:00,
2013-02-26 06:00:00,26.0,26.0,-100.00,WSW,252,0.0,1.0,100,-99.99,,,0.01,-0.200000,,2013-02-26 14:00:00,
2013-02-26 06:52:00,26.0,26.0,-100.00,WSW,252,0.0,1.0,100,-99.99,,,0.01,-0.200000,,2013-02-26 14:52:00,
2013-02-26 07:00:00,24.0,24.0,-100.00,NNW,332,0.0,2.0,99,-99.99,,,-99.99,-0.200000,,2013-02-26 15:00:00,
2013-02-26 07:52:00,24.0,24.0,-100.00,NNW,332,0.0,2.0,99,-99.99,,,-99.99,-0.200000,,2013-02-26 15:52:00,
2013-02-26 08:00:00,25.0,25.0,-100.00,NNE,17,0.0,1.0,99,-99.99,,,0.00,2.900000,,2013-02-26 16:00:00,
2013-02-26 08:52:00,25.0,25.0,-100.00,NNE,17,0.0,1.0,99,-99.99,,,0.00,2.900000,,2013-02-26 16:52:00,
2013-02-26 09:00:00,26.0,26.0,-100.00,North,353,0.0,1.0,100,-99.99,,,-99.99,19.100000,,2013-02-26 17:00:00,
2013-02-26 09:52:00,26.0,26.0,-100.00,North,353,0.0,1.0,100,-99.99,,,-99.99,19.100000,,2013-02-26 17:52:00,
2013-02-26 10:00:00,28.0,28.0,-100.00,North,4,0.0,2.0,100,-99.99,,,0.00,58.700001,,2013-02-26 18:00:00,
2013-02-26 10:52:00,28.0,28.0,-100.00,North,4,0.0,2.0,100,-99.99,,,0.00,58.700001,,2013-02-26 18:52:00,
2013-02-26 11:00:00,29.0,29.0,-100.00,NNW,341,0.0,2.0,99,-99.99,,,0.00,63.099998,,2013-02-26 19:00:00,
2013-02-26 11:52:00,29.0,29.0,-100.00,NNW,341,0.0,2.0,99,-99.99,,,0.00,63.099998,,2013-02-26 19:52:00,
2013-02-26 13:00:00,33.0,33.0,-100.00,NNW,328,0.0,2.0,101,-99.99,,,0.00,47.299999,,2013-02-26 21:00:00,
2013-02-26 13:51:00,33.0,33.0,-100.00,NNW,328,0.0,2.0,101,-99.99,,,0.00,47.299999,,2013-02-26 21:51:00,
2013-02-26 14:00:00,32.0,-99.9,-100.00,North,-999,-999.0,-999.0,-999,-99.99,,,0.00,,,2013-02-26 22:00:00,
2013-02-26 15:00:00,31.0,-99.9,-100.00,North,-999,-999.0,-999.0,-999,-99.99,,,-99.99,,,2013-02-26 23:00:00,
2013-02-26 15:52:00,31.0,-99.9,-100.00,North,-999,-999.0,-999.0,-999,-99.99,,,-99.99,,,2013-02-26 23:52:00,
2013-02-26 16:00:00,31.0,31.0,-100.00,North,349,1.0,3.0,100,-99.99,,,0.00,28.799999,,2013-02-27 00:00:00,
2013-02-26 17:00:00,30.0,30.0,-100.00,North,-999,-999.0,-999.0,100,-99.99,,,0.00,,,2013-02-27 01:00:00,
2013-02-26 17:52:00,30.0,30.0,-100.00,North,-999,-999.0,-999.0,100,-99.99,,,0.00,,,2013-02-27 01:52:00,
2013-02-26 18:00:00,28.0,28.0,-100.00,West,264,0.0,0.0,101,-99.99,,,0.00,1.100000,,2013-02-27 02:00:00,
2013-02-26 18:52:00,28.0,28.0,-100.00,West,264,0.0,0.0,101,-99.99,,,0.00,1.100000,,2013-02-27 02:52:00,
2013-02-26 19:00:00,28.0,28.0,-100.00,NE,55,0.0,2.0,100,-99.99,,,-99.99,-0.200000,,2013-02-27 03:00:00,
2013-02-26 19:52:00,28.0,28.0,-100.00,NE,55,0.0,2.0,100,-99.99,,,-99.99,-0.200000,,2013-02-27 03:52:00,
2013-02-26 20:00:00,28.0,28.0,-100.00,ESE,113,1.0,4.0,100,-99.99,,,-99.99,-0.200000,,2013-02-27 04:00:00,
2013-02-26 20:52:00,28.0,28.0,-100.00,ESE,113,1.0,4.0,100,-99.99,,,-99.99,-0.200000,,2013-02-27 04:52:00,
2013-02-26 21:00:00,29.0,29.0,-100.00,SSW,200,2.0,4.0,100,-99.99,,,0.00,-0.200000,,2013-02-27 05:00:00,
2013-02-26 21:52:00,29.0,29.0,-100.00,SSW,200,2.0,4.0,100,-99.99,,,0.00,-0.200000,,2013-02-27 05:52:00,
2013-02-26 22:00:00,30.0,30.0,-100.00,SSW,196,3.0,5.0,101,-99.99,,,0.00,-0.200000,,2013-02-27 06:00:00,
2013-02-26 22:52:00,30.0,30.0,-100.00,SSW,196,3.0,5.0,101,-99.99,,,0.00,-0.200000,,2013-02-27 06:52:00,
2013-02-26 23:00:00,30.0,30.0,-100.00,SSW,197,3.0,4.0,101,-99.99,,,0.00,-0.200000,,2013-02-27 07:00:00,
2013-02-26 23:52:00,30.0,30.0,-100.00,SSW,197,3.0,4.0,101,-99.99,,,0.00,-0.200000,,2013-02-27 07:52:00,